Regional Weather Roundup
Issued by NWS

Home | Current Version | Previous Version | Graphics & Text | Print | Product List | Glossary On
Versions: 1 2 3 4 5 6 7 8 9 10 11 12 13 14 15 16 17 18 19 20 21 22 23 24 25 26 27 28 29 30 31 32 33 34 35 36 37 38 39 40 41 42 43 44 45 46 47 48 49 50
717
ASUS43 KMKX 181320
RWRWI

WISCONSIN REGIONAL WEATHER ROUNDUP
NATIONAL WEATHER SERVICE MILWAUKEE/SULLIVAN WI
700 AM CST SAT NOV 18 2017

NOTE: "FAIR" INDICATES FEW OR NO CLOUDS BELOW 12,000 FEET WITH NO
SIGNIFICANT WEATHER AND/OR OBSTRUCTIONS TO VISIBILITY.

WIZ001-002-006>008-014>016-023>028-181400-
NORTHWEST WISCONSIN

CITY           SKY/WX    TMP DP  RH WIND       PRES   REMARKS
SUPERIOR ARPT  PTCLDY    26  23  89 NW6       29.77S WCI  19
ASHLAND        CLOUDY    33  30  88 NW7       29.72S WCI  27
HAYWARD        CLOUDY    33  30  88 N6        29.71R WCI  28
SIREN          CLOUDY    31  29  92 NW8       29.76R WCI  23
CUMBERLAND     CLOUDY    32  30  93 N12       29.71R WCI  23
RICE LAKE      CLOUDY    33  32  95 NW8       29.72R WCI  26
CHETEK         CLOUDY    33  32  95 N5        29.71R WCI  29
LADYSMITH      CLOUDY    34  32  94 N7        29.70R WCI  28
EAU CLAIRE     CLOUDY    35  32  88 N5        29.70R WCI  31
MENOMONIE      CLOUDY    35  32  88 NW10      29.72R WCI  27
NEW RICHMOND   CLOUDY    32  31  97 N13       29.75R WCI  22
OSCEOLA        CLOUDY    32  32 100 NW9       29.79R WCI  24
$$

WIZ003>005-009-010-017-018-181400-
NORTH CENTRAL WISCONSIN

CITY           SKY/WX    TMP DP  RH WIND       PRES   REMARKS
MANITOWISH WTR CLOUDY    32  32 100 CALM      29.64R
ARBOR VITAE    CLOUDY    34  33  96 N10       29.63R WCI  26
WOODRUFF       CLOUDY    34  33  96 N10       29.63R WCI  26
RHINELANDER    CLOUDY    32  32 100 N8        29.64R FOG     WCI  25
EAGLE RIVER    CLOUDY    32  32  99 N6        29.62R WCI  27
LAND O LAKES   CLOUDY    32  32  99 N8        29.64R WCI  25
PHILLIPS       CLOUDY    32  32 100 N6        29.65S WCI  26
TOMAHAWK       CLOUDY    32  32  99 NW5       29.65R FOG     WCI  27
MEDFORD        CLOUDY    32  32  99 N12       29.64R FOG     WCI  23
MERRILL        CLOUDY    34  34 100 N8        29.64S FOG     WCI  27
$$

WIZ029-030-035-036-043>047-181400-
CENTRAL WISCONSIN

CITY           SKY/WX    TMP DP  RH WIND       PRES   REMARKS
WAUSAU         CLOUDY    34  33  96 N12       29.61S FOG     WCI  25
MOSINEE        CLOUDY    34  34 100 NW8       29.64R FOG     WCI  27
MARSHFIELD     CLOUDY    34  32  92 N10       29.64R WCI  26
STEVENS POINT  CLOUDY    33  33 100 N8        29.63R WCI  26
WAUPACA        CLOUDY    37  34  91 N5        29.62R WCI  33
WAUTOMA        CLOUDY    35  33  92 N7        29.62R WCI  29
WISC RAPIDS    CLOUDY    36  33  89 N10       29.65R WCI  28
CAMP DOUGLAS   CLOUDY   N/A N/A N/A NW9       29.67R
$$

WIZ011>013-019>022-031-037>040-048>050-181400-
NORTHEAST WISCONSIN

CITY           SKY/WX    TMP DP  RH WIND       PRES   REMARKS
ANTIGO         CLOUDY    32  32 100 N12       29.61R WCI  23
SHAWANO        CLOUDY    37  35  90 N7        29.61S WCI  32
OCONTO         CLOUDY    36  33  91 N6        29.59S WCI  31
STURGEON BAY   CLOUDY    38  35  89 N15G22    29.57S WCI  29
GREEN BAY      CLOUDY    37  35  92 N13G22    29.59S WCI  29
MANITOWOC      CLOUDY    37  35  92 N10       29.57R WCI  30
APPLETON       CLOUDY    36  34  93 N12       29.58R WCI  27
CLINTONVILLE   CLOUDY    36  34  93 N7        29.61R WCI  30
OSHKOSH        CLOUDY    36  33  89 N14       29.59R WCI  27
$$

WIZ032>034-041-042-053>061-181400-
SOUTHWEST WISCONSIN

CITY           SKY/WX    TMP DP  RH WIND       PRES   REMARKS
LA CROSSE      CLOUDY    38  35  89 N12       29.67R WCI  30
SPARTA         CLOUDY    34  33  96 N8        29.67R WCI  27
VIROQUA        CLOUDY    34  34 100 N12G18    29.63S WCI  26
BOSCOBEL       LGT RAIN  38  35  89 N5        29.64R WCI  34
PRAIRIE DU CHI LGT RAIN  37  35  92 NW9       29.64R WCI  31
PLATTEVILLE    CLOUDY    35  35 100 N17       29.58S WCI  25
$$

WIZ056-057-062-063-064-067-068-181400-
SOUTH CENTRAL WISCONSIN

CITY           SKY/WX    TMP DP  RH WIND       PRES   REMARKS
REEDSBURG      CLOUDY    35  35 100 N12G17    29.62R WCI  27
BARABOO/DELLS  LGT RAIN  35  34  96 N8        29.62R WCI  28
LONE ROCK      LGT RAIN  37  35  92 N9        29.63R WCI  30
MINERAL POINT  LGT SNOW  34  34 100 N12       29.59R WCI  25
MADISON        LGT SNOW  34  32  92 N13       29.60R FOG     WCI  25
MIDDLETON      CLOUDY    36  36  98 N13       29.60R WCI  28
WATERTOWN      LGT RAIN  36  36 100 N12G17    29.54S WCI  27
MONROE         RAIN      36  34  93 N12G17    29.56R WCI  27
JANESVILLE     DRIZZLE   37  37 100 N14       29.54R WCI  29
$$

WIZ051-052-058>065-066-070>072-181400-
SOUTHEAST WISCONSIN

CITY           SKY/WX    TMP DP  RH WIND       PRES   REMARKS
MILWAUKEE      CLOUDY    40  37  89 N10G20    29.51F WCI  33
WAUKESHA       CLOUDY    36  34  93 N10       29.52F WCI  28
MILWAUKEE/TIMM CLOUDY    37  32  81 N10       29.53R WCI  30
RACINE         CLOUDY    40  37  89 N9G18     29.53F WCI  34
BURLINGTON     CLOUDY    40  40 100 N8        29.52R WCI  35
KENOSHA        CLOUDY    40  36  86 NE8       29.52R WCI  34
FOND DU LAC    LGT RAIN  36  33  89 N14       29.59R WCI  27
SHEBOYGAN      CLOUDY    37  36  96 N9        29.56R WCI  30
WEST BEND      LGT RAIN  36  34  93 N8        29.53F WCI  29
JUNEAU         LGT RAIN  34  33  95 N13       29.57S WCI  25
$$

LSZ147-162-181400-
LAKE SUPERIOR

STATION/POSITION TIME  TEMP    WIND        PRES    WAVE
                       AIR SEA DIR/SP/G            HT/PER
                 (UTC) (F)     (DEG/KT/KT) (MB)    (FT/S)
DEVILS ISLAND    1300   35     330/ 14/ 16 1007.1R
SAXON HARBOR     1240   38     350/ 14/ 17 1005.4S
$$

LMZ867-665-643>646-181400-
LAKE MICHIGAN

STATION/POSITION TIME  TEMP    WIND        PRES    WAVE
                       AIR SEA DIR/SP/G            HT/PER
                 (UTC) (F)     (DEG/KT/KT) (MB)    (FT/S)
N MID LAKE BUOY  1250   41 48  350/ 21/ 27 1001.3R   5/ 5
NORTHPORT PIER   1302   40     350/ 22     1001.4
SHEBOYGAN LAKESH 1300   38     350/ 17/ 20 1001.1R
PORT WASHINGTON  1230   38     340/  5/  8 1001.7S
MILWAUKEE LAKESH 1250   39      10/ 14/ 19   N/A
S MID LAKE BUOY  1250   44 49   30/ 16/ 19  998.5F   2/ 4
KENOSHA   LAKESH 1300   41      20/ 18/ 19  999.7
$$

TC  - TEMPERATURE IN CELSIUS
VSB - VISIBILITY IN STATUTE MILES
WCI - WIND CHILL INDEX
HX  - HEAT INDEX





USA.gov is the U.S. government's official web portal to all federal, state and local government web resources and services.